{"data":{"norad_id":59044,"epoch":"2026-05-25T03:41:16.293120Z","epoch_age_seconds":55032,"freshness":"FRESH","line1":"1 59044U 24038X   26145.15366080 -.00002744  00000+0 -90098-4 0  9994","line2":"2 59044  43.0091 311.6280 0005723 259.5276 100.4931 15.27583444126386","mean_motion":15.27583444,"eccentricity":0.0005723,"inclination_deg":43.0091,"raan_deg":311.628,"arg_perigee_deg":259.5276,"mean_anomaly_deg":100.4931,"bstar":-9.0098e-5,"rev_number":12638,"period_min":94.266536185371,"perigee_km":479.11213258317,"apogee_km":486.96543438494,"semimajor_km":6861.1757834841,"source":"CELESTRAK","updated_at":"2026-05-25T13:38:18.826774Z"}}